"Period start","avg(HW err(1)/warn(2) (#))","avg(Visibility (m))","avg(Weather code (#))","avg(Precip intensity (mm/h))","min(HW err(1)/warn(2) (#))","max(HW err(1)/warn(2) (#))","std(HW err(1)/warn(2) (#))","med(HW err(1)/warn(2) (#))","min(Visibility (m))","max(Visibility (m))","std(Visibility (m))","med(Visibility (m))","min(Weather code (#))","max(Weather code (#))","std(Weather code (#))","med(Weather code (#))","min(Precip intensity (mm/h))","max(Precip intensity (mm/h))","std(Precip intensity (mm/h))","med(Precip intensity (mm/h))"
2014-12-30 00:00:00,2,16042,78,0.01,2,2,0,2,8093,28572,6046,14966,78,78,0,78,0.00,0.05,0.02,0.00
2014-12-30 00:10:00,2,40173,31,0.00,2,2,0,2,11463,50000,12605,45844,0,78,38,0,0.00,0.00,0.00,0.00
2014-12-30 00:20:00,2,43327,0,0.00,2,2,0,2,30648,50000,7165,46626,0,0,0,0,0.00,0.00,0.00,0.00
2014-12-30 00:30:00,2,43435,0,0.00,2,2,0,2,32414,50000,6362,44474,0,0,0,0,0.00,0.00,0.00,0.00
2014-12-30 00:40:00,2,38528,0,0.00,2,2,0,2,29496,50000,5983,38073,0,0,0,0,0.00,0.00,0.00,0.00
2014-12-30 00:50:00,2,44997,0,0.00,2,2,0,2,40915,49440,2770,44846,0,0,0,0,0.00,0.00,0.00,0.00
2014-12-30 01:00:00,2,49205,0,0.00,2,2,0,2,45705,50000,1408,50000,0,0,0,0,0.00,0.00,0.00,0.00
2014-12-30 01:10:00,2,38028,0,0.00,2,2,0,2,32401,42264,3111,39047,0,0,0,0,0.00,0.00,0.00,0.00
2014-12-30 01:20:00,2,19973,0,0.00,2,2,0,2,11542,37081,7405,19748,0,0,0,0,0.00,0.00,0.00,0.00
2014-12-30 01:30:00,2,9093,61,0.01,2,2,0,2,7316,14640,2275,8255,0,78,31,78,0.00,0.05,0.02,0.00
2014-12-30 01:40:00,2,7387,77,0.00,2,2,0,2,6680,8039,498,7440,77,77,0,77,0.00,0.00,0.00,0.00
2014-12-30 01:50:00,2,7434,77,0.01,2,2,0,2,5522,9406,1116,7189,77,78,0,77,0.00,0.05,0.02,0.00
2014-12-30 02:00:00,2,5859,77,0.02,2,2,0,2,3684,7590,1201,6058,77,77,0,77,0.00,0.05,0.02,0.00
2014-12-30 02:10:00,2,3090,78,0.10,2,2,0,2,2360,4221,461,3008,77,78,0,78,0.00,0.15,0.04,0.10
2014-12-30 02:20:00,2,3707,78,0.04,2,2,0,2,2973,5230,786,3238,78,78,0,78,0.00,0.15,0.05,0.05
2014-12-30 02:30:00,2,7857,77,0.00,2,2,0,2,5107,11485,2074,7131,77,78,0,77,0.00,0.00,0.00,0.00
2014-12-30 02:40:00,2,17878,18,0.00,2,2,0,2,10466,23027,3863,19009,0,78,30,0,0.00,0.00,0.00,0.00
2014-12-30 02:50:00,2,9083,38,0.00,2,2,0,2,7663,10445,789,9140,0,78,38,36,0.00,0.00,0.00,0.00
2014-12-30 03:00:00,2,8381,78,0.01,2,2,0,2,7189,9926,891,8344,78,78,0,78,0.00,0.05,0.02,0.00
2014-12-30 03:10:00,2,10223,78,0.00,2,2,0,2,7970,12995,1605,9768,78,78,0,78,0.00,0.00,0.00,0.00
2014-12-30 03:20:00,2,5208,78,0.01,2,2,0,2,3152,8371,1591,4675,78,78,0,78,0.00,0.05,0.02,0.00
2014-12-30 03:30:00,2,4283,74,0.05,2,2,0,2,3406,5468,674,4335,71,78,3,71,0.00,0.10,0.03,0.05
2014-12-30 03:40:00,2,6621,76,0.03,2,2,0,2,5698,9124,968,6195,71,78,3,77,0.00,0.15,0.04,0.03
2014-12-30 03:50:00,2,8854,77,0.00,2,2,0,2,6873,10352,1210,9049,77,77,0,77,0.00,0.00,0.00,0.00
2014-12-30 04:00:00,2,8226,77,0.00,2,2,0,2,7250,9492,674,8154,77,77,0,77,0.00,0.00,0.00,0.00
2014-12-30 04:10:00,2,9648,78,0.00,2,2,0,2,7919,11677,1138,9424,77,78,0,78,0.00,0.00,0.00,0.00
2014-12-30 04:20:00,2,15192,78,0.00,2,2,0,2,11310,19665,2738,15030,77,78,0,78,0.00,0.00,0.00,0.00
2014-12-30 04:30:00,2,14801,8,0.00,2,2,0,2,11901,18402,2006,14414,0,78,23,0,0.00,0.00,0.00,0.00
2014-12-30 04:40:00,2,11189,0,0.00,2,2,0,2,7994,14347,2050,11911,0,0,0,0,0.00,0.00,0.00,0.00
2014-12-30 04:50:00,2,10876,0,0.00,2,2,0,2,8039,14299,1652,10486,0,0,0,0,0.00,0.00,0.00,0.00
2014-12-30 05:00:00,2,12654,0,0.00,2,2,0,2,10259,15808,1729,12246,0,0,0,0,0.00,0.00,0.00,0.00
2014-12-30 05:10:00,2,15745,0,0.00,2,2,0,2,14337,19626,1565,15368,0,0,0,0,0.00,0.00,0.00,0.00
2014-12-30 05:20:00,2,11505,0,0.00,2,2,0,2,8792,17426,2472,11036,0,0,0,0,0.00,0.00,0.00,0.00
2014-12-30 05:30:00,2,7237,37,0.00,2,2,0,2,6146,8388,635,7186,0,77,37,36,0.00,0.00,0.00,0.00
2014-12-30 05:40:00,2,7276,77,0.00,2,2,0,2,5503,9465,1069,7128,77,77,0,77,0.00,0.00,0.00,0.00
2014-12-30 05:50:00,2,7798,77,0.01,2,2,0,2,6123,9539,882,7664,77,77,0,77,0.00,0.05,0.02,0.00
2014-12-30 06:00:00,2,7470,77,0.00,2,2,0,2,6881,9046,587,7351,77,78,0,77,0.00,0.00,0.00,0.00
2014-12-30 06:10:00,2,12007,78,0.01,2,2,0,2,7937,15478,1970,12097,78,78,0,78,0.00,0.15,0.05,0.00
2014-12-30 06:20:00,2,13567,75,0.01,2,2,0,2,11396,16813,1847,12685,71,78,3,77,0.00,0.05,0.02,0.00
2014-12-30 06:30:00,2,10325,78,0.00,2,2,0,2,8427,12243,1067,10140,77,78,0,78,0.00,0.00,0.00,0.00
2014-12-30 06:40:00,2,18736,76,0.02,2,2,0,2,10977,27144,5588,18268,71,78,3,78,0.00,0.10,0.03,0.00
2014-12-30 06:50:00,2,41185,78,0.00,2,2,0,2,28349,47921,5427,42488,78,78,0,78,0.00,0.00,0.00,0.00
2014-12-30 07:00:00,2,43762,0,0.00,2,2,0,2,21967,50000,8120,46026,0,0,0,0,0.00,0.00,0.00,0.00
2014-12-30 07:10:00,2,23616,53,0.00,2,2,0,2,19911,28344,3278,23666,0,78,35,74,0.00,0.00,0.00,0.00
2014-12-30 07:20:00,2,33100,78,0.00,2,2,0,2,17412,47739,10408,31489,78,78,0,78,0.00,0.00,0.00,0.00
2014-12-30 07:30:00,2,27417,62,0.00,2,2,0,2,18992,34632,4670,28121,0,78,31,78,0.00,0.00,0.00,0.00
2014-12-30 07:40:00,2,30327,0,0.00,2,2,0,2,15245,38849,7806,32226,0,0,0,0,0.00,0.00,0.00,0.00
2014-12-30 07:50:00,2,21461,0,0.00,2,2,0,2,8231,36397,9574,20790,0,0,0,0,0.00,0.00,0.00,0.00
2014-12-30 08:00:00,2,7990,53,0.00,2,2,0,2,5845,9820,1289,8255,0,78,35,74,0.00,0.00,0.00,0.00
2014-12-30 08:10:00,2,15720,78,0.00,2,2,0,2,9432,22655,3369,16003,77,78,0,78,0.00,0.00,0.00,0.00
2014-12-30 08:20:00,2,13048,78,0.00,2,2,0,2,11017,16149,1663,12742,77,78,0,78,0.00,0.00,0.00,0.00
2014-12-30 08:30:00,2,16603,78,0.00,2,2,0,2,11827,23511,3244,16424,77,78,0,78,0.00,0.00,0.00,0.00
2014-12-30 08:40:00,2,27820,8,0.00,2,2,0,2,19117,31173,3369,29168,0,77,23,0,0.00,0.00,0.00,0.00
2014-12-30 08:50:00,2,39907,0,0.00,2,2,0,2,29058,47721,4686,40058,0,0,0,0,0.00,0.00,0.00,0.00
2014-12-30 09:00:00,2,40623,0,0.00,2,2,0,2,34844,48953,3832,40622,0,0,0,0,0.00,0.00,0.00,0.00
2014-12-30 09:10:00,2,44233,0,0.00,2,2,0,2,36639,50000,4643,45876,0,0,0,0,0.00,0.00,0.00,0.00
2014-12-30 09:20:00,2,38360,0,0.00,2,2,0,2,26268,50000,9365,37900,0,0,0,0,0.00,0.00,0.00,0.00
2014-12-30 09:30:00,2,42208,0,0.00,2,2,0,2,28335,50000,7232,42533,0,0,0,0,0.00,0.00,0.00,0.00
2014-12-30 09:40:00,2,43996,0,0.00,2,2,0,2,33595,50000,5421,44808,0,0,0,0,0.00,0.00,0.00,0.00
2014-12-30 09:50:00,2,43284,0,0.00,2,2,0,2,19188,50000,10390,50000,0,0,0,0,0.00,0.00,0.00,0.00
2014-12-30 10:00:00,2,37649,22,0.00,2,2,0,2,13981,50000,11597,42508,0,78,34,0,0.00,0.00,0.00,0.00
2014-12-30 10:10:00,2,49349,62,0.00,2,2,0,2,46663,50000,1231,50000,0,78,31,78,0.00,0.00,0.00,0.00
2014-12-30 10:20:00,2,38789,22,0.01,2,2,0,2,13624,50000,13410,46042,0,77,33,0,0.00,0.05,0.02,0.00
2014-12-30 10:30:00,2,20064,74,0.11,2,2,0,2,7479,35312,7819,19355,71,77,3,74,0.00,0.65,0.19,0.05
2014-12-30 10:40:00,2,10846,71,0.19,2,2,0,2,4859,18076,3586,10203,71,71,0,71,0.00,0.60,0.18,0.12
2014-12-30 10:50:00,2,16047,73,0.12,2,2,0,2,7868,20549,3223,16776,71,77,3,71,0.00,0.80,0.23,0.05
2014-12-30 11:00:00,2,13057,72,0.04,2,2,0,2,11254,17098,1638,12600,71,77,2,71,0.00,0.10,0.04,0.05
2014-12-30 11:10:00,2,8903,75,0.09,2,2,0,2,5477,13293,2618,8020,71,77,3,77,0.00,0.20,0.06,0.08
2014-12-30 11:20:00,2,7037,76,0.09,2,2,0,2,5259,11493,1864,6226,71,77,2,77,0.00,0.25,0.07,0.08
2014-12-30 11:30:00,2,5403,75,0.09,2,2,0,2,4505,6567,716,5180,71,77,3,77,0.05,0.15,0.04,0.10
2014-12-30 11:40:00,2,6374,74,0.11,2,2,0,2,3781,9275,2158,5888,71,77,3,74,0.00,0.25,0.08,0.10
2014-12-30 11:50:00,2,6847,75,0.07,2,2,0,2,4682,9112,1188,6705,71,77,3,77,0.00,0.30,0.08,0.05
2014-12-30 12:00:00,2,5960,76,0.06,2,2,0,2,4897,7099,624,5924,71,78,3,77,0.00,0.15,0.04,0.05
2014-12-30 12:10:00,2,6334,73,0.07,2,2,0,2,5427,7250,537,6190,71,77,3,71,0.00,0.15,0.04,0.05
2014-12-30 12:20:00,2,4945,74,0.10,2,2,0,2,3440,6082,759,5024,71,77,3,74,0.00,0.25,0.07,0.08
2014-12-30 12:30:00,2,5842,73,0.10,2,2,0,2,3937,10109,1791,5018,71,77,3,71,0.05,0.15,0.03,0.10
2014-12-30 12:40:00,2,10093,71,0.08,2,2,0,2,6664,12534,1568,10084,71,71,0,71,0.05,0.15,0.04,0.05
2014-12-30 12:50:00,2,9575,75,0.03,2,2,0,2,8557,10869,667,9732,71,78,3,77,0.00,0.15,0.05,0.00
2014-12-30 13:00:00,2,9564,77,0.04,2,2,0,2,5524,12136,1795,9775,77,78,0,77,0.00,0.10,0.04,0.05
2014-12-30 13:10:00,2,14030,77,0.00,2,2,0,2,9620,18323,2804,13348,77,77,0,77,0.00,0.00,0.00,0.00
2014-12-30 13:20:00,2,20015,78,0.00,2,2,0,2,17157,23235,2103,19678,77,78,0,78,0.00,0.00,0.00,0.00
2014-12-30 13:30:00,2,13431,78,0.00,2,2,0,2,11899,16443,1226,13287,78,78,0,78,0.00,0.00,0.00,0.00
2014-12-30 13:40:00,2,11263,78,0.00,2,2,0,2,8742,15381,2435,10278,77,78,0,78,0.00,0.00,0.00,0.00
2014-12-30 13:50:00,2,8907,78,0.00,2,2,0,2,7201,10336,1037,9173,78,78,0,78,0.00,0.00,0.00,0.00
2014-12-30 14:00:00,2,10097,78,0.00,2,2,0,2,8796,14852,1701,9539,78,78,0,78,0.00,0.00,0.00,0.00
2014-12-30 14:10:00,2,13105,77,0.00,2,2,0,2,11736,15593,1290,12453,77,78,0,77,0.00,0.00,0.00,0.00
2014-12-30 14:20:00,2,13324,55,0.00,2,2,0,2,11663,19374,2208,12418,0,78,36,78,0.00,0.00,0.00,0.00
2014-12-30 14:30:00,2,22619,0,0.00,2,2,0,2,13596,35594,8152,20048,0,0,0,0,0.00,0.00,0.00,0.00
2014-12-30 14:40:00,2,30530,0,0.00,2,2,0,2,23179,43168,7534,27803,0,0,0,0,0.00,0.00,0.00,0.00
2014-12-30 14:50:00,2,20554,0,0.00,2,2,0,2,15727,28632,3944,18575,0,0,0,0,0.00,0.00,0.00,0.00
2014-12-30 15:00:00,2,19277,7,0.00,2,2,0,2,10673,25810,3772,18636,0,71,21,0,0.00,0.00,0.00,0.00
2014-12-30 15:10:00,2,10891,77,0.02,2,2,0,2,8167,13519,1611,10760,71,78,2,78,0.00,0.05,0.02,0.00
2014-12-30 15:20:00,2,9391,77,0.04,2,2,0,2,7180,15818,2558,8704,77,78,0,77,0.00,0.05,0.02,0.05
2014-12-30 15:30:00,2,23497,78,0.02,2,2,0,2,11964,30359,5699,24605,77,78,0,78,0.00,0.05,0.02,0.00
2014-12-30 15:40:00,2,16413,77,0.04,2,2,0,2,7766,32675,8437,15080,71,78,3,78,0.00,0.10,0.04,0.03
2014-12-30 15:50:00,2,7264,73,0.10,2,2,0,2,4384,10252,1570,7024,71,77,3,71,0.05,0.25,0.07,0.05
2014-12-30 16:00:00,2,5682,75,0.06,2,2,0,2,4498,7505,997,5242,71,77,3,77,0.05,0.10,0.02,0.05
2014-12-30 16:10:00,2,7848,77,0.04,2,2,0,2,6167,9220,965,7982,77,78,0,77,0.00,0.05,0.02,0.05
2014-12-30 16:20:00,2,7583,78,0.06,2,2,0,2,6219,9203,744,7592,78,78,0,78,0.05,0.10,0.02,0.05
2014-12-30 16:30:00,2,7017,78,0.06,2,2,0,2,6521,7368,263,7056,78,78,0,78,0.05,0.10,0.02,0.05
2014-12-30 16:40:00,2,6732,78,0.07,2,2,0,2,5868,7858,612,6668,78,78,0,78,0.05,0.10,0.02,0.05
2014-12-30 16:50:00,2,7207,78,0.05,2,2,0,2,5927,8279,766,7374,78,78,0,78,0.05,0.05,0.00,0.05
2014-12-30 17:00:00,2,6797,77,0.05,2,2,0,2,5088,8112,1040,7150,71,78,2,77,0.00,0.30,0.09,0.03
2014-12-30 17:10:00,2,5241,74,0.04,2,2,0,2,4003,6849,924,5358,71,78,3,71,0.00,0.10,0.03,0.05
2014-12-30 17:20:00,2,4807,74,0.11,2,2,0,2,4054,5968,627,4605,71,78,3,71,0.05,0.25,0.06,0.10
2014-12-30 17:30:00,2,4306,72,0.09,2,2,0,2,3287,5162,532,4206,71,77,2,71,0.05,0.10,0.02,0.10
2014-12-30 17:40:00,2,4821,78,0.06,2,2,0,2,3977,5455,405,4803,77,78,0,78,0.05,0.10,0.02,0.05
2014-12-30 17:50:00,2,5386,78,0.03,2,2,0,2,4664,6013,394,5345,78,78,0,78,0.00,0.05,0.02,0.05
2014-12-30 18:00:00,2,5416,78,0.04,2,2,0,2,5085,5759,226,5413,78,78,0,78,0.00,0.05,0.02,0.05
2014-12-30 18:10:00,2,6948,78,0.05,2,2,0,2,5977,7922,704,6750,78,78,0,78,0.00,0.10,0.02,0.05
2014-12-30 18:20:00,2,7729,78,0.05,2,2,0,2,6792,8666,573,7802,78,78,0,78,0.05,0.05,0.00,0.05
2014-12-30 18:30:00,2,5378,78,0.04,2,2,0,2,3495,6728,1198,5988,78,78,0,78,0.00,0.05,0.02,0.05
2014-12-30 18:40:00,2,3134,77,0.08,2,2,0,2,2530,3779,444,3068,71,78,2,78,0.05,0.25,0.06,0.05
2014-12-30 18:50:00,2,3120,73,0.09,2,2,0,2,2496,3743,415,3036,71,77,3,71,0.05,0.15,0.04,0.10
2014-12-30 19:00:00,2,3518,71,0.12,2,2,0,2,2096,4075,555,3532,71,71,0,71,0.05,0.60,0.16,0.05
2014-12-30 19:10:00,2,4562,71,0.09,2,2,0,2,2955,8153,1616,3900,71,71,0,71,0.00,0.30,0.10,0.05
2014-12-30 19:20:00,2,9240,75,0.02,2,2,0,2,8045,10604,987,8772,71,77,3,77,0.00,0.10,0.03,0.00
2014-12-30 19:30:00,2,13180,77,0.01,2,2,0,2,10223,16232,1766,12967,71,78,2,77,0.00,0.10,0.03,0.00
2014-12-30 19:40:00,2,29592,73,0.01,2,2,0,2,20591,36757,4696,29610,71,77,3,71,0.00,0.15,0.05,0.00
2014-12-30 19:50:00,2,21507,78,0.01,2,2,0,2,11342,41198,8971,19088,78,78,0,78,0.00,0.05,0.02,0.00
2014-12-30 20:00:00,2,17110,72,0.02,2,2,0,2,9363,30820,7272,14512,71,78,3,71,0.00,0.05,0.02,0.00
2014-12-30 20:10:00,2,12555,76,0.00,2,2,0,2,10645,13901,1046,12753,71,78,3,78,0.00,0.00,0.00,0.00
2014-12-30 20:20:00,2,10055,78,0.02,2,2,0,2,5845,13074,2524,10474,77,78,0,78,0.00,0.05,0.02,0.00
2014-12-30 20:30:00,2,8865,76,0.07,2,2,0,2,5515,13011,2655,7501,71,78,3,78,0.05,0.15,0.03,0.05
2014-12-30 20:40:00,2,8668,78,0.03,2,2,0,2,7459,11298,1057,8564,77,78,0,78,0.00,0.05,0.02,0.05
2014-12-30 20:50:00,2,13878,73,0.05,2,2,0,2,9970,17563,2494,13754,71,78,3,71,0.00,0.15,0.04,0.05
2014-12-30 21:00:00,2,33018,14,0.00,2,2,0,2,6261,49417,14487,36422,0,71,28,0,0.00,0.00,0.00,0.00
2014-12-30 21:10:00,2,6927,71,0.11,2,2,0,2,5352,9601,1330,6578,71,71,0,71,0.00,0.45,0.13,0.05
2014-12-30 21:20:00,2,15211,73,0.02,2,2,0,2,7638,29512,7904,10546,71,77,3,71,0.00,0.05,0.02,0.00
2014-12-30 21:30:00,2,23942,73,0.08,2,2,0,2,6242,38754,11590,27417,71,77,3,71,0.00,0.40,0.13,0.00
2014-12-30 21:40:00,2,12915,71,0.10,2,2,0,2,8002,29758,5939,11774,71,71,0,71,0.00,0.50,0.18,0.00
2014-12-30 21:50:00,2,14049,71,0.00,2,2,0,2,10610,18458,2783,14289,71,71,0,71,0.00,0.00,0.00,0.00
2014-12-30 22:00:00,2,10889,77,0.01,2,2,0,2,7496,14724,2525,10721,71,78,2,77,0.00,0.10,0.03,0.00
2014-12-30 22:10:00,2,6606,77,0.04,2,2,0,2,4764,8091,1145,7044,77,78,0,77,0.00,0.10,0.03,0.05
2014-12-30 22:20:00,2,6441,77,0.04,2,2,0,2,4519,11166,1836,6124,71,78,2,78,0.00,0.10,0.03,0.05
2014-12-30 22:30:00,2,30645,75,0.01,2,2,0,2,15564,43415,8764,31099,71,77,3,77,0.00,0.05,0.02,0.00
2014-12-30 22:40:00,2,46202,77,0.00,2,2,0,2,40594,50000,3988,48096,71,78,2,78,0.00,0.00,0.00,0.00
2014-12-30 22:50:00,2,48533,30,0.00,2,2,0,2,41479,50000,2779,50000,0,77,37,0,0.00,0.00,0.00,0.00
2014-12-30 23:00:00,2,50000,0,0.00,2,2,0,2,50000,50000,0,50000,0,0,0,0,0.00,0.00,0.00,0.00
2014-12-30 23:10:00,2,50000,0,0.00,2,2,0,2,50000,50000,0,50000,0,0,0,0,0.00,0.00,0.00,0.00
2014-12-30 23:20:00,2,49977,0,0.00,2,2,0,2,49767,50000,70,50000,0,0,0,0,0.00,0.00,0.00,0.00
2014-12-30 23:30:00,2,43757,16,0.00,2,2,0,2,19303,50000,10606,50000,0,41,20,0,0.00,0.00,0.00,0.00
2014-12-30 23:40:00,2,37824,75,0.01,2,2,0,2,14111,50000,13742,45924,71,77,3,77,0.00,0.05,0.02,0.00
2014-12-30 23:50:00,2,49384,76,0.00,2,2,0,2,46704,50000,1236,50000,71,77,2,77,0.00,0.00,0.00,0.00
